TimeEET,TemperatureF,Dew PointF,Humidity,Sea Level PressureIn,VisibilityMPH,Wind Direction,Wind SpeedMPH,Gust SpeedMPH,PrecipitationIn,Events,Conditions,WindDirDegrees,DateUTC
12:20 AM,55.4,48.2,77,29.59,6.2,Variable,2.3,-,N/A,,Scattered Clouds,0,2013-03-11 22:20:00
12:50 AM,55.4,48.2,77,29.59,6.2,Variable,2.3,-,N/A,,Scattered Clouds,0,2013-03-11 22:50:00
1:20 AM,57.2,50.0,77,29.59,6.2,Variable,2.3,-,N/A,,Scattered Clouds,0,2013-03-11 23:20:00
1:50 AM,57.2,48.2,72,29.59,6.2,Variable,2.3,-,N/A,,Mostly Cloudy,0,2013-03-11 23:50:00
2:00 AM,56,49,69,29.59,6,West,2.3,,,,Mostly Cloudy,280,2013-03-12 00:00:00
2:20 AM,57.2,50.0,77,29.59,6.2,West,3.5,-,N/A,Rain,Light Rain Showers,260,2013-03-12 00:20:00
2:50 AM,57.2,50.0,77,29.56,6.2,WSW,5.8,-,N/A,Rain,Light Rain Showers,240,2013-03-12 00:50:00
3:20 AM,55.4,48.2,77,29.56,6.2,South,10.4,-,N/A,Rain,Light Rain Showers,190,2013-03-12 01:20:00
3:50 AM,55.4,50.0,82,29.56,6.2,WSW,8.1,-,N/A,,Mostly Cloudy,240,2013-03-12 01:50:00
4:20 AM,55.4,48.2,77,29.56,6.2,SW,5.8,-,N/A,,Mostly Cloudy,220,2013-03-12 02:20:00
5:20 AM,55.4,50.0,82,29.56,6.2,SW,8.1,-,N/A,,Mostly Cloudy,220,2013-03-12 03:20:00
5:50 AM,55.4,50.0,82,29.56,6.2,SW,8.1,-,N/A,,Mostly Cloudy,230,2013-03-12 03:50:00
6:20 AM,55.4,50.0,82,29.59,6.2,West,6.9,-,N/A,,Mostly Cloudy,280,2013-03-12 04:20:00
6:50 AM,59.0,50.0,72,29.59,6.2,West,9.2,-,N/A,,Mostly Cloudy,270,2013-03-12 04:50:00
7:20 AM,59.0,51.8,77,29.59,6.2,WNW,8.1,-,N/A,,Mostly Cloudy,290,2013-03-12 05:20:00
7:50 AM,57.2,51.8,82,29.59,6.2,NNW,5.8,-,N/A,,Mostly Cloudy,330,2013-03-12 05:50:00
8:00 AM,58,51,71,29.62,6,NNW,5.8,,,,Partly Cloudy,330,2013-03-12 06:00:00
8:20 AM,57.2,50.0,77,29.59,6.2,NNW,9.2,-,N/A,,Scattered Clouds,340,2013-03-12 06:20:00
8:50 AM,57.2,51.8,82,29.59,6.2,NNW,8.1,-,N/A,,Partly Cloudy,340,2013-03-12 06:50:00
9:20 AM,59.0,50.0,72,29.62,-9999.0,North,3.5,-,N/A,,Clear,350,2013-03-12 07:20:00
9:50 AM,62.6,51.8,68,29.62,-9999.0,Variable,2.3,-,N/A,,Clear,0,2013-03-12 07:50:00
10:20 AM,60.8,51.8,72,29.59,-9999.0,SSE,4.6,-,N/A,,Clear,160,2013-03-12 08:20:00
10:50 AM,62.6,50.0,63,29.59,-9999.0,SSE,5.8,-,N/A,,Clear,150,2013-03-12 08:50:00
11:20 AM,62.6,50.0,63,29.59,-9999.0,SW,3.5,-,N/A,,Clear,220,2013-03-12 09:20:00
11:50 AM,62.6,50.0,63,29.59,-9999.0,WSW,4.6,-,N/A,,Clear,240,2013-03-12 09:50:00
12:20 PM,62.6,50.0,63,29.59,6.2,SSW,5.8,-,N/A,,Scattered Clouds,200,2013-03-12 10:20:00
12:50 PM,60.8,50.0,68,29.59,6.2,SSW,5.8,-,N/A,,Scattered Clouds,210,2013-03-12 10:50:00
1:20 PM,60.8,48.2,63,29.56,6.2,West,6.9,-,N/A,,Mostly Cloudy,260,2013-03-12 11:20:00
1:50 PM,62.6,48.2,59,29.53,6.2,West,6.9,-,N/A,,Mostly Cloudy,280,2013-03-12 11:50:00
2:00 PM,62,47,47,29.56,6,West,6.9,,,,Scattered Clouds,280,2013-03-12 12:00:00
2:20 PM,62.6,46.4,55,29.53,6.2,WNW,4.6,-,N/A,,Mostly Cloudy,290,2013-03-12 12:20:00
2:50 PM,60.8,46.4,59,29.53,6.2,WSW,4.6,-,N/A,,Mostly Cloudy,250,2013-03-12 12:50:00
3:20 PM,57.2,48.2,72,29.53,6.2,SSE,10.4,-,N/A,,Mostly Cloudy,160,2013-03-12 13:20:00
3:50 PM,57.2,50.0,77,29.53,6.2,SE,10.4,-,N/A,,Mostly Cloudy,140,2013-03-12 13:50:00
4:20 PM,57.2,50.0,77,29.53,6.2,SSE,5.8,-,N/A,,Mostly Cloudy,150,2013-03-12 14:20:00
4:50 PM,59.0,51.8,77,29.53,6.2,SSE,8.1,-,N/A,,Mostly Cloudy,160,2013-03-12 14:50:00
5:20 PM,55.4,50.0,82,29.53,6.2,South,11.5,-,N/A,,Mostly Cloudy,170,2013-03-12 15:20:00
5:50 PM,55.4,48.2,77,29.53,6.2,South,8.1,-,N/A,,Scattered Clouds,190,2013-03-12 15:50:00
6:20 PM,53.6,48.2,82,29.53,6.2,SSW,8.1,-,N/A,,Scattered Clouds,210,2013-03-12 16:20:00
6:50 PM,53.6,48.2,82,29.53,6.2,SW,8.1,-,N/A,,Scattered Clouds,220,2013-03-12 16:50:00
7:20 PM,53.6,46.4,77,29.53,6.2,SSW,4.6,-,N/A,,Partly Cloudy,210,2013-03-12 17:20:00
7:50 PM,53.6,46.4,77,29.53,6.2,SSW,5.8,-,N/A,,Partly Cloudy,210,2013-03-12 17:50:00
8:00 PM,54,46,68,29.56,6,SSW,5.8,,,,Scattered Clouds,210,2013-03-12 18:00:00
8:20 PM,55.4,46.4,72,29.56,6.2,SSW,6.9,-,N/A,,Scattered Clouds,210,2013-03-12 18:20:00
8:50 PM,55.4,44.6,67,29.56,6.2,SW,9.2,-,N/A,,Scattered Clouds,220,2013-03-12 18:50:00
9:20 PM,55.4,46.4,72,29.56,6.2,SSW,9.2,-,N/A,,Scattered Clouds,210,2013-03-12 19:20:00
9:50 PM,51.8,44.6,76,29.59,6.2,SW,3.5,-,N/A,,Scattered Clouds,220,2013-03-12 19:50:00
10:20 PM,55.4,46.4,72,29.59,6.2,SW,11.5,-,N/A,,Scattered Clouds,220,2013-03-12 20:20:00
10:50 PM,53.6,46.4,77,29.59,6.2,WSW,4.6,-,N/A,,Partly Cloudy,250,2013-03-12 20:50:00
11:20 PM,51.8,44.6,76,29.62,6.2,WSW,4.6,-,N/A,,Partly Cloudy,240,2013-03-12 21:20:00
11:50 PM,51.8,44.6,76,29.62,6.2,Variable,2.3,-,N/A,,Partly Cloudy,0,2013-03-12 21:50:00